Elko, NV

10:58 PM PST on November 19, 2017 (GMT -0800)
Elko Regional

Weather History for KEKO - February, 2012

Change the Weather History Date:

Sunday, February 19, 2012

  Actual Average Record
Temperature  
Mean Temperature 22 °F 31 °F  
Max Temperature 34 °F 43 °F 67 °F (1981)
Min Temperature 9 °F 20 °F -22 °F (1932)
Degree Days  
Heating Degree Days 43 34  
Month to date heating degree days 650 694  
Since 1 July heating degree days 4487 4879  
Cooling Degree Days 0 0  
Month to date cooling degree days 0 0  
Year to date cooling degree days 0 0  
Moisture  
Dew Point 14 °F    
Average Humidity 72    
Maximum Humidity 100    
Minimum Humidity 43    
Precipitation  
Precipitation 0.00 in 0.02 in 0.90 in (1901)
Month to date precipitation 0.38 0.55  
Year to date precipitation 1.34 1.67  
Snow  
Snow 0.00 in 0.20 in 4.20 in (1971)
Month to date snowfall 5.2 4.7  
Since 1 July snowfall 14.1 30.8  
Snow Depth 1.00 in    
Sea Level Pressure  
Sea Level Pressure 30.06 in    
Wind  
Wind Speed 4 mph (WSW)    
Max Wind Speed 16 mph    
Max Gust Speed 23 mph    
Visibility 10 miles    
Events      
T = Trace of Precipitation, MM = Missing Value Source: NWS Daily Summary

Daily Weather History Graph

Daily Weather History Graph

Search for Another Location

Airport or City:

Trip Planner

Search our weather history database for the weather conditions in past years. The results will help you decide how hot, cold, wet, or windy it might be!

Date:

Astronomy

Feb. 19, 2012 Rise Set
Actual Time 6:32 AM PST 5:22 PM PST
Civil Twilight 6:04 AM PST 5:50 PM PST
Nautical Twilight 5:32 AM PST 6:22 PM PST
Astronomical Twilight 5:00 AM PST 6:53 PM PST
Moon 4:56 AM PST (2/19) 3:27 PM PST (2/19)
Length of Visible Light 11h 45m
Length of Day
10h 49m
Waning Crescent, 5% of the Moon is Illuminated
Feb 19
Waning Crescent
Feb 21
New
Feb 29
First Quarter
Mar 8
Full
Mar 14
Last Quarter

Hourly Weather History & Observations

Time (PST) Temp. Windchill Dew Point Humidity Pressure Visibility Wind Dir Wind Speed Gust Speed Precip Events Conditions
12:56 AM 17.1 °F - 15.1 °F 92% 30.04 in 10.0 mi Calm Calm - N/A   Clear
1:56 AM 14.0 °F 8.2 °F 12.0 °F 92% 30.05 in 10.0 mi SW 3.5 mph - N/A   Clear
2:44 AM 14.0 °F 6.5 °F 10.4 °F 86% 29.95 in 10.0 mi WSW 4.6 mph - N/A   Partly Cloudy
2:56 AM 12.9 °F 5.2 °F 10.9 °F 92% 30.03 in 10.0 mi SW 4.6 mph - N/A   Scattered Clouds
3:03 AM 14.0 °F - 10.4 °F 86% 29.95 in 10.0 mi Calm Calm - N/A   Mostly Cloudy
3:18 AM 14.0 °F 8.2 °F 12.2 °F 93% 29.95 in 10.0 mi West 3.5 mph - N/A   Scattered Clouds
3:42 AM 14.0 °F 8.2 °F 12.2 °F 93% 29.95 in 10.0 mi WSW 3.5 mph - N/A   Mostly Cloudy
3:56 AM 14.0 °F - 12.0 °F 92% 30.04 in 10.0 mi Calm Calm - N/A   Overcast
4:26 AM 14.0 °F 8.2 °F 10.4 °F 86% 29.96 in 10.0 mi NW 3.5 mph - N/A   Scattered Clouds
4:56 AM 12.0 °F 4.1 °F 10.0 °F 92% 30.07 in 10.0 mi WSW 4.6 mph - N/A   Clear
5:56 AM 10.0 °F - 8.1 °F 92% 30.10 in 10.0 mi Calm Calm - N/A   Clear
6:56 AM 10.4 °F - 8.6 °F 92% 29.98 in 10.0 mi Calm Calm - N/A   Clear
7:56 AM 16.0 °F 10.4 °F 15.1 °F 96% 30.12 in 10.0 mi West 3.5 mph - N/A   Clear
8:56 AM 21.0 °F 11.4 °F 19.0 °F 92% 30.11 in 10.0 mi SSW 8.1 mph - N/A   Clear
9:56 AM 26.1 °F 16.8 °F 19.9 °F 78% 30.09 in 10.0 mi SSW 9.2 mph - N/A   Clear
10:56 AM 28.0 °F 18.6 °F 17.1 °F 63% 30.08 in 10.0 mi WSW 10.4 mph - N/A   Clear
11:56 AM 30.0 °F 26.5 °F 17.1 °F 59% 30.06 in 10.0 mi Variable 3.5 mph - N/A   Partly Cloudy
12:56 PM 32.0 °F 24.8 °F 15.1 °F 50% 30.05 in 10.0 mi WNW 8.1 mph - N/A   Scattered Clouds
1:56 PM 33.1 °F 23.4 °F 14.0 °F 46% 30.05 in 10.0 mi West 13.8 mph 20.7 mph N/A   Mostly Cloudy
2:56 PM 30.9 °F 20.7 °F 14.0 °F 50% 30.08 in 10.0 mi West 13.8 mph - N/A   Scattered Clouds
3:56 PM 30.9 °F 22.2 °F 15.1 °F 52% 30.07 in 10.0 mi WSW 10.4 mph - N/A   Overcast
4:56 PM 30.0 °F 25.2 °F 15.1 °F 54% 30.08 in 10.0 mi WSW 4.6 mph - N/A   Mostly Cloudy
5:56 PM 26.1 °F 21.9 °F 16.0 °F 66% 30.11 in 10.0 mi South 3.5 mph - N/A   Clear
6:56 PM 23.0 °F - 16.0 °F 74% 30.12 in 10.0 mi Calm Calm - N/A   Clear
7:56 PM 21.0 °F - 15.1 °F 78% 30.12 in 10.0 mi Calm Calm - N/A   Clear
8:56 PM 19.9 °F - 15.1 °F 81% 30.11 in 10.0 mi Calm Calm - N/A   Clear
9:56 PM 21.0 °F - 15.1 °F 78% 30.10 in 5.0 mi Calm Calm - N/A   Haze
10:56 PM 21.9 °F - 17.1 °F 82% 30.10 in 10.0 mi Calm Calm - N/A   Clear
11:56 PM 21.9 °F - 15.1 °F 75% 30.11 in 10.0 mi Calm Calm - N/A   Clear